558  
ASUS46 KSTO 260704  
RWRCA  
 
NORTHERN AND CENTRAL CA REGIONAL WEATHER ROUNDUP  
NATIONAL WEATHER SERVICE SACRAMENTO CA  
1200 AM PDT MON JUN 26 2017  
 
NOTE: FAIR INDICATES FEW OR NO CLOUDS BELOW 12,000 FEET WITH NO  
SIGNIFICANT WEATHER AND/OR S TO VISIBILITY
.  
 
CAZ001-003-260800-  
NORTHWEST AREA  
 
CITY SKY/WX TMP DP RH WIND PRES REMARKS
 
CRESCENT CITY CLOUDY 57 54 89 S5 30.02S  
UKIAH CLEAR 63 55 75 CALM 29.98R  

 
 
CAZ006-505>513-260800-  
BAY AREA  
 
CITY SKY/WX TMP DP RH WIND PRES REMARKS
 
SANTA ROSA CLOUDY 57 54 89 S6 29.99R  
SAN RAFAEL N/A 60 MM MM MISG  
NAPA CLEAR 60 54 80 W13 29.99S  
CONCORD CLEAR 61 54 77 S12 30.00R  
OAKLAND CITY N/A MM MM MM MISG  
OAKLAND CLOUDY 61 55 81 W13 30.03S  
SAN FRAN CITY N/A 58 MM 84 MISG  
SAN FRAN ARPT PTCLDY 60 52 74 W12 30.03R  
LIVERMORE CLEAR 58 53 84 W9 30.01R  
HAYWARD CLOUDY 62 52 69 W7 30.03R  
REDWOOD CITY N/A 62 MM 73 MISG  
MOFFETT ARPT CLEAR 61 54 77 CALM 30.03S  
SAN JOSE ARPT PTCLDY 62 55 77 N3 30.03S  

 
CAZ034-037-514>518-260800-  
CENTRAL COAST  
 
CITY SKY/WX TMP DP RH WIND PRES REMARKS
 
WATSONVILLE CLEAR 56 55 97 N3 30.03S  
SALINAS CLEAR 60 53 77 N6 30.02S  
MONTEREY CLEAR 63 53 70 SW9 30.03F  
SAN LUIS OBISP CLEAR 55 53 93 CALM 30.01R  
SANTA MARIA CLEAR 53 53 100 CALM 30.01S  

 
CAZ015-016-260800-  
NORTHERN SACRAMENTO VALLEY  
 
CITY SKY/WX TMP DP RH WIND PRES REMARKS
 
REDDING CLEAR 85 55 35 SW9 29.88R  
RED BLUFF CLEAR 77 63 61 S7 29.88R  
OROVILLE CLEAR 75 57 53 SE9 29.91R  

 
CAZ016>018-260800-  
SOUTHERN SACRAMENTO VALLEY  
 
CITY SKY/WX TMP DP RH WIND PRES REMARKS
 
AUBURN CLEAR 75 39 27 SE6 29.98S  
BEALE AFB CLEAR 69 55 60 S10 29.89R  
LINCOLN FAIR 70 50 49 S12 29.92R  
MARYSVILLE CLEAR 68 55 63 SE9 29.91R  
SAC INTL ARPT CLEAR 62 55 77 S13 29.91R  
MATHER AIRPORT NOT AVBL  
DOWNTOWN SAC N/A 63 MM MM MISG  
SAC EXEC ARPT CLEAR 61 55 81 S13 29.93R  
VACAVILLE CLEAR 65 54 67 S13 29.92R  
TRAVIS AFB CLEAR 58 54 87 SW22 29.93S  

 
CAZ019>021-260800-  
SAN JOAQUIN VALLEY  
 
CITY SKY/WX TMP DP RH WIND PRES REMARKS
 
STOCKTON CLEAR 66 55 67 NW9 29.95R  
MODESTO CLEAR 71 55 56 NW12 29.92R  
MERCED CLEAR 73 54 51 NW13 29.90R  
LEMOORE CLEAR 79 52 38 NW12 29.89R  
FRESNO CLEAR 81 57 43 NW13 29.89R  
HANFORD CLEAR 82 63 52 NW13 29.88R  
PORTERVILLE N/A 80 47 31 S7 29.90R  
BAKERSFIELD CLEAR 85 43 22 N10 29.90R  

 
CAZ011-012-071-260800-  
NORTHERN MOUNTAINS  
 
CITY SKY/WX TMP DP RH WIND PRES REMARKS
 
YREKA CLEAR 60 54 80 N5 30.02R  
MOUNT SHASTA CLEAR 61 53 75 CALM 30.08R  
ALTURAS CLEAR 65 49 56 NE6 30.13R  

 
CAZ011-012-071-260800-  
SIERRA NEVADA MTNS  
 
CITY SKY/WX TMP DP RH WIND PRES REMARKS
 
BLUE CANYON CLEAR 69 49 48 SE3 30.23S  
TRUCKEE CLEAR 50 45 81 CALM 30.27S  
TAHOE VLY ARPT CLEAR 58 50 75 S3 30.28S  
MAMMOTH LAKES FAIR 61 43 52 CALM 30.33R  

 
 
 
CLICK HERE TO GO TO PREVIOUS BULLETINS.

The Nexlab CA Page Main Text Page